Arar current weather conditions

sailwx.info

Wind from 040 at 13 knots

Air temperature 41.0° C
Dewpoint 17.0° C

Last reported at 2015-Jul-31 09:00 UTC.
Time now 2015-Jul-31 11:19 UTC

Location: N 30°54' E 041°08'.
View on Google Maps.

See reports from other nearby stations

  
Tides and Currents Weather Stations Pressure Air Temp Water Temp Dewpoint Dewpoint Depression Visibility Wind Speed Wind Dir Waves Ship Positions
date/time (UTC)wind fromknots sea level pressurealtimeterstation pressurevisibilityair tempwater tempwave heightnotes
2015-Jul-31 10:00 020 8 43.0
2015-Jul-31 09:00 040 13 41.0
2015-Jul-31 08:00 030 13 40.0
2015-Jul-31 07:00 020 11 38.0
2015-Jul-31 06:00 020 12 36.0
2015-Jul-31 05:00 340 14 34.0
2015-Jul-31 04:00 330 11 31.0
2015-Jul-31 03:00 330 10 29.0
2015-Jul-31 02:00 330 11 30.0
2015-Jul-31 01:00 340 12 30.0
2015-Jul-31 00:00 340 12 31.0
2015-Jul-30 23:00 340 11 32.0
2015-Jul-30 22:00 340 11 33.0
2015-Jul-30 21:00 320 11 34.0
2015-Jul-30 20:00 340 9 35.0
2015-Jul-30 19:00 320 10 36.0
2015-Jul-30 18:00 330 9 37.0
2015-Jul-30 17:00 330 8 39.0
2015-Jul-30 16:00 310 7 42.0
2015-Jul-30 15:00 300 5 43.0
2015-Jul-30 14:00 320 8 44.0
2015-Jul-30 13:00 330 1 45.0
2015-Jul-30 12:00 280 11 46.0
2015-Jul-30 11:00 350 9 45.0
2015-Jul-30 10:00 310 12 44.0
2015-Jul-30 09:00 330 14 43.0
2015-Jul-30 08:00 320 17 41.0
2015-Jul-30 07:00 320 18 39.0
2015-Jul-30 06:00 340 18 37.0
2015-Jul-30 05:00 330 13 35.0
2015-Jul-30 04:00 320 16 32.0
2015-Jul-30 03:00 310 16 31.0
2015-Jul-30 02:00 330 15 31.0
2015-Jul-30 01:00 330 19 4.932.0
2015-Jul-30 00:00 320 22 3.833.0
2015-Jul-29 23:00 320 20 4.333.0
2015-Jul-29 22:00 290 11 34.0
2015-Jul-29 21:00 290 13 35.0
2015-Jul-29 20:00 280 15 36.0
2015-Jul-29 19:00 270 14 36.0
2015-Jul-29 18:00 250 10 38.0
2015-Jul-29 17:00 250 9 40.0
2015-Jul-29 16:00 240 12 43.0
2015-Jul-29 15:00 240 15 5.444.0
2015-Jul-29 14:00 230 15 5.445.0
2015-Jul-29 13:00 190 9 5.446.0
2015-Jul-29 12:00 190 12 46.0
2015-Jul-29 11:00 170 13 47.0